FENGYUN 1C DEB, 31666

Orbit data source: Space-Track

FENGYUN 1C DEB, 31666 is space debris in SSO originally from a launch on Mon, 10 May 1999 UTC launched from the Taiyaun Space Center, China (TSC). Fengyun 1C debris stems from the Chinese weather satellite Fengyun-1C, which was intentionally destroyed by a Chinese anti-satellite missile in 2007. This event dramatically increased the amount of space debris, with thousands of trackable fragments posing hazards to satellites and human spaceflight. The Fengyun 1C debris cloud has become a focal point in discussions about space sustainability and the need for international regulations to prevent the creation of new debris.

Loading next visibility...
Identifier
31666, 1999-025CBY
Orbit
SSO
Country
Flag of CNCN / PRC
Related business
Manufacturer
Unknown
Mission
Spacecraft
Bus & Motor
Unknown
Mass
Unknown
Launch date (UTC)
1999-05-10 (27 years ago)
Launch vehicle
Unknown
Launch site
Taiyaun Space Center, China (TSC)
Object type
Payload
Rocket body
Debris
Shape & HBR
Unknown shape, 0.1 m
Radar Cross Section
Medium (>0.1 m² and <1 m²)

Expand to show TLE details & history
Last TLE update: 3 days ago

TLE from 3 days ago
0 FENGYUN 1C DEB
1 31666U 99025CBY 26167.20654127  .00027621  00000-0  23487-2 0  9990
2 31666  98.6611 338.7624 0019776 263.0753  96.8216 14.97655328    17
Epoch: 2026-06-16T04:57Z
TLE epoch observation values (Epoch: 2026-06-16T04:57:25.165Z)
Latitude
-0.0001°
Longitude
-0.07434°
Altitude
578.825 km
Speed
7.57 km/s
True Right ascension
22h 35m 02s
True Declination
0° 00' 00"
Sunlit
Object was in daylight at epoch
Visualization orbit readout
Latitude
Unknown
Longitude
Unknown
Altitude
Unknown
Speed
Unknown
Apparent Right ascension
Unknown
Apparent Declination
Unknown
Sunlit
N/A
Visualization observer readout
Local Sidereal Time
23:19:54
Azimuth
Unknown
Elevation
Unknown
Doppler factor
Unknown
Orbital elements
Apogee altitude
584.939 km
Perigee altitude
557.453 km
Semi-major axis
6,949.333 km
Eccentricity
0.00198
Inclination
98.6611°
RAAN
338.7624°
Arg. of periapsis
263.0753°
True anomaly
97.04655°
Mean anomaly
96.8216°
Eccentric anomaly
96.93408°
Mean motion
3.74652 °/min
Orbital period
96.09 mins
BSTAR
0.0023487
Loading maneuver chart data...
Computing Atmospheric mass density...

Documentation

Showing up to 5 results
|